Simultaneous Nadir Overpasses (SNOs) Predictions

Prediction of SNOs between AQUA and NPP Satellite Orbit:

Table of predicted SNOs for the next 14.0 days since TLE Epoch: 2/15/2019
Index Date (AQUA) Time (AQUA) Lat,Lon (AQUA) SZA (AQUA ) Date (NPP) Time (NPP) Lat,Lon (NPP) SZA (NPP ) Distance(km) Time Diff (sec)
1 02/18/2019 06:21:43 76.24, -35.57 109.08 02/18/2019 06:21:34 76.23, -35.65 109.11 2.25 9
2 02/18/2019 07:10:51 -77.19, 135.40 72.06 02/18/2019 07:11:58 -77.19, 135.38 72.11 0.57 67
3 02/20/2019 21:48:59 -75.71, -88.97 71.25 02/20/2019 21:47:55 -75.71, -88.94 71.20 0.80 64
4 02/20/2019 22:38:04 76.67, 81.77 107.63 02/20/2019 22:38:18 76.67, 81.77 107.61 0.04 14
5 02/23/2019 14:05:27 -75.81, 27.21 72.33 02/23/2019 14:04:47 -75.80, 27.12 72.28 2.65 40
6 02/23/2019 14:54:25 77.10,-160.82 106.15 02/23/2019 14:55:02 77.11,-160.71 106.09 2.87 37
7 02/26/2019 06:21:46 -76.34, 144.74 73.94 02/26/2019 06:21:29 -76.34, 144.76 73.93 0.36 17
8 02/26/2019 07:10:52 77.23, -44.43 105.00 02/26/2019 07:11:53 77.23, -44.42 104.95 0.25 61
9 02/28/2019 21:49:06 75.38, 90.10 106.17 02/28/2019 21:47:57 75.37, 90.01 106.25 2.75 69
10 02/28/2019 22:38:11 -76.52, -98.77 75.16 02/28/2019 22:38:18 -76.51, -98.84 75.15 1.90 7




NCC Satellite Simultaneous Nadir Overpasses (SNOs) Prediction Service
